Location: Paris
(48.6709°N, 2.3750°E)
Time: 18:01:08
(UTC+02:00)

STARS - Pass Details

Date: 28 June 2022
Orbit: 620 x 637 km, 98.2° (Epoch: 06 August)

Event Time Altitude Azimuth Distance (km) Brightness Sun altitude
Rises 00:51:34 0° 12° (NNE) 2,940 ? -16.7°
Reaches altitude 10° 00:53:47 10° 10° (N) 2,025 ? -16.8°
Maximum altitude 00:58:11 73° 287° (WNW) 663 ? -17.0°
Enters shadow 01:00:39 25° 207° (SSW) 1,265 ? -17.1°
